Location: Colebrook
(42.0017°N, 73.0973°W)
Time: 05:13:18
(UTC-04:00)

Transit 2A Rocket - All Passes

Search period start: 21 October 2021 00:00
Search period end: 31 October 2021 00:00
Orbit: 584 x 918 km, 66.7° (Epoch: 20 October)

Date Brightness Start Highest point End Pass type
(mag) Time Alt. Az. Time Alt. Az. Time Alt. Az.
21 Oct - 01:52:03 10° N 01:55:11 14° NNE 01:58:18 10° ENE night (unlit)
21 Oct - 03:33:10 10° NNW 03:39:11 55° NE 03:45:07 10° SE visible
21 Oct - 05:16:29 10° NW 05:21:30 27° WSW 05:26:23 10° SSW visible
21 Oct - 18:08:21 10° S 18:12:55 34° ESE 18:17:54 10° NE daylight
21 Oct - 19:50:35 10° WSW 19:55:27 37° NW 20:00:46 10° NNE visible
22 Oct - 01:11:19 10° NNE 01:11:49 10° NNE 01:12:19 10° NNE night (unlit)
22 Oct - 02:50:42 10° NNW 02:56:19 36° NE 03:01:52 10° ESE night (unlit)
22 Oct - 04:33:18 10° NW 04:39:04 44° WSW 04:44:42 10° S visible
22 Oct - 17:26:58 10° SSE 17:30:36 20° ESE 17:34:27 10° ENE daylight
22 Oct - 19:07:28 10° SW 19:12:36 60° NW 19:18:16 10° NNE visible
22 Oct - 20:53:46 10° WNW 20:56:33 14° NNW 20:59:27 10° N visible
23 Oct - 02:08:21 10° N 02:13:18 25° NE 02:18:14 10° E night (unlit)
23 Oct - 03:50:25 10° NW 03:56:33 72° WSW 04:02:30 10° SSE night (unlit)
23 Oct - 05:36:51 10° W 05:38:06 11° W 05:39:19 10° WSW night (unlit)
23 Oct - 16:47:27 10° ESE 16:48:24 10° E 16:49:23 10° E daylight
23 Oct - 18:24:44 10° SSW 18:29:53 83° ESE 18:35:37 10° NNE visible
23 Oct - 20:09:25 10° W 20:13:19 20° NW 20:17:28 10° N visible
24 Oct - 01:26:10 10° N 01:30:09 18° NE 01:34:08 10° ENE night (unlit)
24 Oct - 03:07:42 10° NNW 03:13:52 73° ENE 03:19:53 10° SE night (unlit)
24 Oct - 04:51:42 10° WNW 04:55:52 19° WSW 04:59:57 10° SSW night (unlit)
24 Oct - 17:42:25 10° S 17:47:20 48° ESE 17:52:46 10° NE daylight
24 Oct - 19:25:37 10° WSW 19:30:13 29° NW 19:35:13 10° NNE visible
25 Oct - 00:44:21 10° N 00:46:52 13° NNE 00:49:24 10° NE night (unlit)
25 Oct - 02:25:09 10° NNW 02:31:04 47° NE 02:36:53 10° SE night (unlit)
25 Oct - 04:08:12 10° NW 04:13:32 32° WSW 04:18:43 10° S night (unlit)
25 Oct - 17:00:35 10° SSE 17:04:56 28° ESE 17:09:39 10° NE daylight
25 Oct - 18:42:15 10° SW 18:47:17 44° NW 18:52:48 10° NNE visible
25 Oct - 20:29:53 10° NW 20:31:34 11° NNW 20:33:17 10° NNW visible
26 Oct - 01:42:43 10° NNW 01:48:09 32° NE 01:53:29 10° ESE night (unlit)
26 Oct - 03:25:08 10° NW 03:31:04 52° WSW 03:36:50 10° S night (unlit)
26 Oct - 16:19:33 10° SE 16:22:40 16° ESE 16:25:56 10° ENE daylight
26 Oct - 17:59:16 10° SW 18:04:28 72° WNW 18:10:14 10° NNE daylight
26 Oct - 19:44:56 10° WNW 19:48:15 16° NW 19:51:43 10° N visible
27 Oct - 01:00:26 10° N 01:05:05 22° NE 01:09:42 10° E night (unlit)
27 Oct - 02:42:19 10° NNW 02:48:29 84° WSW 02:54:29 10° SSE night (unlit)
27 Oct - 04:27:26 10° WNW 04:30:11 13° W 04:32:54 10° SW night (unlit)
27 Oct - 17:16:40 10° SSW 17:21:49 69° ESE 17:27:31 10° NE daylight
27 Oct - 19:00:49 10° W 19:05:04 23° NW 19:09:36 10° N visible
28 Oct - 00:18:20 10° N 00:21:52 16° NE 00:25:25 10° ENE night (unlit)
28 Oct - 01:59:40 10° NNW 02:05:47 63° ENE 02:11:43 10° SE night (unlit)
28 Oct - 03:43:16 10° NW 03:47:56 23° WSW 03:52:28 10° SSW night (unlit)
28 Oct - 16:34:31 10° S 16:39:19 40° ESE 16:44:36 10° NE daylight
28 Oct - 18:17:11 10° WSW 18:22:01 34° NW 18:27:17 10° NNE visible
28 Oct - 23:36:49 10° NNE 23:38:33 11° NNE 23:40:17 10° NE night (unlit)
29 Oct - 01:17:09 10° NNW 01:22:56 41° NE 01:28:34 10° ESE night (unlit)
29 Oct - 02:59:57 10° NW 03:05:33 38° WSW 03:10:58 10° S night (unlit)
29 Oct - 15:52:55 10° SSE 15:56:58 23° ESE 16:01:19 10° NE daylight
29 Oct - 17:33:58 10° SW 17:39:07 53° NW 17:44:48 10° NNE daylight
29 Oct - 19:20:45 10° WNW 19:23:14 13° NNW 19:25:47 10° N visible
30 Oct - 00:34:46 10° NNW 00:39:57 28° NE 00:45:03 10° ESE night (unlit)
30 Oct - 02:16:59 10° NW 02:23:03 63° WSW 02:28:54 10° SSE night (unlit)
30 Oct - 15:12:22 10° SE 15:14:44 13° E 15:17:11 10° ENE daylight
30 Oct - 16:51:07 10° SSW 16:56:22 86° WNW 17:02:11 10° NNE daylight
30 Oct - 18:36:13 10° W 18:39:58 18° NW 18:43:54 10° N visible
